MYRIOTA 7 (TYVAK-0152)

导读

MYRIOTA 7(TYVAK-0152)是澳大利亚研发的一颗3U纳卫星,属于迈瑞奥塔系列星座,由特瓦克纳米卫星系统公司开发,于北京时间2021年3月22日发射,轨道高度224-242千米,倾角45度。它主要服务于物联网M2M通信,可实现全球任意位置低成本、长续航、安全的实时设备联网通信,截至2024年2月仍在正常工作,是迈瑞奥塔星座迈向实时全球连接的重要一步。

基本信息
目录编号:
47968
目录名称:
MYRIOTA 7 (TYVAK-0152)
国际标识:
2021-023D
轨道中心:
EARTH
卫星名称:
MYRIOTA 7 (TYVAK-0152)
卫星全名:
--
卫星状态:
已陨落 最后检测时间 2024-12-07
发射日期:
2021-03-22 UTC
国别 :
澳大利亚 (AU)
星等 :
--
轨道信息
数据来源 国际轨道数据
星历时间: 2024-12-02T04:45:09+0800
轨道信息已过期589天
半长轴: 6623.549km
偏心率: 0.0014828
轨道倾角: 44.970°
近地点辐角 19.994°
升交点赤经 45.736°
平近点角 340.155°
近地点: 235.592km
远地点: 255.236km
周期: 89.412分钟
每日圈数: 16.105222
详细信息
使用方式:
暂无